Wind_Speed
4 4 4 4 5 7 7 7 8 8 8 8 8 6 6 5 6 6 8 9 9 9 8 7 6 6 7 7 8 8 9 9 8 8 8 7 8 8 7 6 6 6 5 6 6 6 6 5 3
6 6 6 5 4 5 8 7 8 8 10 11 11 10 9 7 7 7 7 8 8 8 8 7 7 6 6 6 7 8 8 9 8 9 9 9 9 10 10 10 9 9 8 8 7 6 6 5 3
8 8 8 7 7 8 9 9 9 10 11 13 14 13 11 10 8 8 7 7 7 7 6 6 6 6 6 6 7 7 8 9 9 10 11 12 12 13 13 13 13 12 12 11 10 9 8 7 5
11 10 10 9 11 13 12 12 12 12 13 14 15 15 14 12 9 8 8 8 8 7 7 6 6 7 7 7 8 9 10 10 11 12 13 14 15 15 16 16 16 16 15 15 14 13 11 10 10
13 12 11 11 14 16 15 15 14 14 14 14 15 15 14 12 11 10 9 10 9 9 9 9 9 9 10 11 11 12 13 14 14 15 16 17 18 18 18 19 19 19 19 18 18 17 16 14 13
15 14 13 13 17 18 18 16 16 16 15 14 14 14 14 13 13 12 12 12 12 12 12 13 14 14 14 15 16 17 18 19 19 20 21 22 22 21 21 22 22 22 22 21 21 21 20 19 18
16 16 16 17 19 21 21 19 18 17 16 15 14 14 14 14 14 14 13 13 14 15 16 17 18 18 19 20 21 22 23 24 24 25 25 26 27 26 26 25 25 25 25 24 24 24 23 23 22
17 17 18 20 21 23 23 23 22 20 19 17 15 15 15 15 16 16 16 17 17 18 19 21 22 24 25 26 26 27 28 28 29 29 30 30 30 31 31 30 28 27 27 26 26 26 26 26 26
19 19 19 21 21 24 26 26 25 24 23 21 20 18 17 17 18 19 19 19 20 21 23 25 27 29 30 31 32 32 32 32 33 34 34 34 33 34 35 34 32 31 30 28 27 27 27 27 28
21 20 21 21 21 22 26 28 27 27 27 26 24 22 20 19 19 20 21 22 24 26 27 29 30 31 32 34 36 36 35 33 34 36 37 39 38 38 38 37 36 34 33 32 30 29 28 28 28
22 22 22 22 23 23 25 27 27 28 29 28 27 26 24 23 23 23 24 25 27 29 30 32 32 33 35 36 37 36 35 35 34 35 38 40 40 41 40 40 38 37 35 34 32 31 30 29 29
23 23 23 23 24 23 23 25 26 27 29 29 30 29 28 27 26 26 26 27 29 30 33 34 34 35 36 37 37 37 37 35 34 36 39 40 41 42 42 41 41 39 37 35 34 33 31 30 30
23 23 24 24 23 23 22 23 24 25 27 28 30 31 31 30 29 29 29 30 31 33 34 35 35 36 37 38 38 37 36 35 35 37 38 41 42 44 43 43 42 41 40 38 36 35 33 31 30
21 22 23 23 23 23 22 22 22 23 24 26 28 30 31 31 31 31 31 31 33 34 35 36 36 37 39 38 38 37 35 34 35 36 39 42 43 44 45 44 44 43 41 40 38 36 35 33 31
19 19 21 21 21 22 22 22 22 22 22 24 25 27 28 30 30 31 32 32 34 35 36 37 38 39 39 39 39 38 35 35 35 37 40 41 41 42 44 44 44 44 44 42 40 38 36 33 31
16 14 15 19 19 20 20 22 22 22 22 22 22 23 24 25 27 28 30 31 33 35 37 38 40 41 41 41 40 38 36 35 35 37 38 38 38 39 42 45 45 46 45 43 40 38 36 33 32
8 7 12 17 18 19 20 21 22 22 21 21 20 20 21 22 24 26 29 31 34 36 38 40 41 41 41 41 40 37 36 36 36 36 36 35 33 35 39 41 43 45 44 42 40 39 37 35 34
8 8 11 15 17 18 20 21 22 22 21 21 20 20 21 22 25 27 30 33 35 37 38 39 40 40 40 39 38 37 37 37 36 36 35 32 30 29 33 37 39 42 43 42 40 40 38 37 35
8 8 10 14 15 16 18 18 19 20 20 21 21 21 23 25 27 29 31 33 34 35 36 37 38 38 37 37 37 37 37 37 37 36 33 31 28 27 27 32 36 40 42 41 40 40 39 37 36
7 6 10 13 13 14 15 15 16 16 17 18 19 20 22 24 25 27 28 29 31 33 34 35 36 37 37 37 38 38 38 38 37 36 34 31 28 26 24 28 34 39 40 41 41 39 38 37 36
6 5 9 11 10 10 11 11 13 13 14 16 17 19 21 23 25 27 29 31 32 33 34 36 37 38 39 40 40 40 39 39 38 37 35 33 30 27 26 26 29 33 36 38 40 39 37 36 35
6 9 8 8 9 10 10 13 13 15 17 18 20 21 23 25 27 28 31 32 34 35 36 38 39 40 40 41 42 42 41 40 39 38 37 35 33 31 29 28 28 28 30 33 35 36 35 35 35
8 7 7 8 10 12 13 14 16 17 19 20 21 23 25 27 29 31 33 34 35 35 37 38 39 41 42 43 43 43 43 42 41 40 38 38 36 35 34 33 32 31 31 32 34 34 34 35 35
4 6 8 10 12 13 17 16 20 19 20 22 24 26 28 29 31 32 33 34 35 36 38 39 40 42 44 45 45 45 44 43 42 41 40 39 39 38 38 38 37 36 36 36 37 37 37 36 37
5 6 9 10 11 14 21 20 20 21 22 25 27 28 30 31 32 32 33 34 36 37 39 41 42 43 44 44 44 43 42 41 40 40 41 41 41 41 41 42 42 42 42 42 42 41 41 40 40
7 7 9 10 12 16 21 19 19 22 25 27 28 29 30 31 32 33 35 36 38 39 40 41 42 42 41 40 39 39 39 39 39 40 41 41 43 44 45 46 47 47 48 48 48 48 46 45 44
9 10 11 11 13 13 18 19 20 23 26 27 28 29 30 31 33 35 37 39 40 41 42 42 41 39 37 37 36 36 37 39 40 42 43 44 44 46 48 49 51 53 54 55 55 55 53 52 49
9 9 9 9 11 12 16 22 23 24 25 26 27 29 31 34 36 38 39 40 41 43 43 42 39 37 36 36 36 37 39 41 43 45 47 48 49 50 51 52 54 56 58 59 61 61 61 60 57
8 8 9 10 12 14 15 22 23 24 25 27 29 31 33 35 37 38 39 41 42 43 42 40 38 37 36 37 38 40 43 45 48 49 51 52 53 55 56 57 58 58 60 62 64 66 67 67 65
8 9 10 12 15 17 19 22 22 24 26 28 30 32 34 36 38 39 40 41 42 42 41 39 38 38 38 39 41 44 47 49 51 52 54 56 57 58 59 60 61 63 63 64 66 68 70 71 71
Wind_Direction
291 301 315 326 344 353 344 352 355 359 357 355 354 349 346 345 341 333 325 321 317 317 316 317 334 346 344 337 329 319 309 304 302 297 288 282 284 291 294 294 290 290 297 312 328 338 351 8 11
279 283 284 292 322 328 310 322 331 337 338 337 335 334 327 329 332 329 323 317 316 318 320 323 335 340 335 328 320 311 304 298 292 288 284 281 282 286 287 286 282 279 279 285 295 306 314 326 347
277 274 273 277 281 275 286 296 307 319 326 327 326 324 320 318 321 322 319 315 315 318 322 329 337 333 322 314 307 301 295 290 286 284 282 281 282 285 286 285 281 277 275 275 276 280 287 291 295
275 274 275 274 274 272 276 284 293 306 316 319 319 315 311 311 311 311 309 309 309 312 317 323 324 318 311 303 298 294 291 287 285 283 282 282 282 283 284 282 278 274 272 271 270 270 273 276 277
276 275 275 276 270 272 274 279 287 296 304 310 311 310 303 301 299 298 300 301 301 304 306 306 307 305 302 299 296 293 290 288 287 286 285 284 283 282 282 280 277 273 270 269 268 266 264 266 266
272 275 267 261 268 274 276 281 285 289 292 298 303 304 299 295 291 289 290 292 293 297 298 298 298 297 297 297 296 294 292 290 291 290 289 288 286 284 283 280 277 273 268 266 265 263 261 260 260
268 268 264 260 262 269 274 279 281 283 286 290 294 296 293 288 285 284 285 286 288 290 292 294 296 296 296 295 295 294 293 294 294 294 292 291 289 286 284 281 277 273 269 265 264 262 260 258 257
267 265 262 259 258 261 267 272 276 279 282 285 287 291 291 288 285 282 283 285 287 289 293 295 296 296 295 293 292 291 291 292 292 292 291 291 288 285 282 280 277 274 270 267 264 261 260 258 256
270 265 261 258 257 257 261 264 269 275 279 282 286 288 290 292 290 287 284 285 288 291 293 294 296 296 294 294 293 293 292 292 291 290 289 290 288 283 280 278 276 273 270 267 265 261 259 257 256
274 270 265 262 258 253 254 258 262 268 273 279 284 287 288 291 292 290 287 287 289 291 293 295 296 296 297 297 297 297 295 294 293 291 289 287 286 283 279 275 272 270 269 267 265 261 260 258 257
275 272 269 265 261 256 254 257 260 263 268 275 279 283 284 286 287 287 287 287 288 289 293 294 294 295 297 297 298 298 297 296 296 296 293 288 285 283 280 273 268 265 264 265 264 262 260 259 258
275 272 271 271 272 271 268 267 266 267 269 272 275 277 279 280 280 281 282 283 284 287 290 291 293 295 297 297 300 301 298 296 296 298 297 292 287 282 277 272 267 263 262 262 261 261 260 258 258
272 271 273 276 278 279 278 275 274 272 273 273 272 273 274 275 275 276 278 280 283 286 290 293 295 295 296 298 300 302 300 297 296 297 298 294 289 282 275 269 264 262 261 259 257 258 258 257 256
272 272 274 276 279 281 282 280 277 275 275 274 273 273 273 272 273 274 276 279 282 286 289 292 293 293 296 299 301 302 300 299 297 298 298 294 288 279 271 265 261 259 259 257 255 255 256 254 254
272 273 273 274 277 280 284 284 284 283 281 279 277 275 272 270 271 271 274 277 281 284 287 289 290 291 294 297 300 302 300 299 299 299 299 296 288 276 267 261 257 256 255 254 253 253 252 250 250
269 271 271 274 278 281 284 287 289 289 289 287 284 281 276 273 271 272 275 278 282 284 286 288 289 292 294 296 298 300 298 299 300 300 300 297 286 274 263 258 255 253 254 253 251 251 249 248 248
266 250 265 279 282 285 286 288 290 292 292 291 289 286 282 278 276 278 280 283 285 287 289 291 292 293 294 296 297 297 297 298 300 301 302 298 288 274 263 257 252 251 251 251 250 250 248 246 246
245 258 274 280 284 285 285 285 287 288 288 289 288 286 284 284 284 285 287 289 291 291 293 294 295 295 296 296 296 296 296 298 301 304 305 301 293 280 264 254 251 250 248 248 248 248 245 244 244
261 273 280 288 289 287 285 284 284 283 284 285 286 287 288 288 290 292 293 295 295 295 296 297 297 298 297 296 295 295 296 297 299 303 304 302 296 285 272 256 250 249 246 244 245 244 242 241 241
279 294 296 302 299 295 292 290 290 290 291 293 294 295 295 296 296 297 299 300 300 299 299 300 299 297 295 295 294 294 294 295 297 299 300 301 297 289 281 261 252 248 244 243 243 241 240 239 239
283 280 290 306 310 305 305 304 303 307 307 306 306 305 305 303 301 300 301 303 303 302 301 300 299 297 296 295 294 294 294 294 294 294 293 292 291 286 279 273 260 251 246 243 241 238 237 238 239
263 273 286 305 320 316 316 309 311 312 311 309 307 306 304 302 301 301 302 302 302 302 300 299 298 297 296 295 294 293 292 291 290 288 287 285 282 278 274 267 263 258 252 247 242 238 237 237 238
247 268 290 304 310 311 314 308 308 308 309 308 306 304 303 302 301 301 302 302 302 301 300 299 298 297 296 295 294 292 291 290 288 286 284 281 277 273 267 262 259 257 254 251 246 240 238 237 237
276 288 303 314 315 302 305 303 299 304 304 304 303 303 303 303 303 303 303 303 303 302 301 300 298 296 295 293 292 291 289 288 286 285 282 279 275 271 266 261 257 253 251 249 247 243 240 237 236
293 306 307 303 298 285 296 299 300 303 304 304 304 304 304 304 304 305 304 304 304 304 303 301 299 297 295 293 292 290 288 286 284 283 282 279 275 270 266 262 258 254 251 249 248 245 242 238 236
287 286 282 281 287 291 300 307 309 306 306 307 307 307 307 308 308 309 308 308 307 307 306 304 302 300 297 294 292 290 288 287 286 285 283 280 276 272 267 263 259 255 252 249 248 247 244 241 238
286 284 287 296 302 306 305 315 312 310 310 311 311 312 313 313 313 313 313 312 312 312 311 308 306 303 299 296 293 291 289 288 286 285 284 281 278 273 269 264 260 256 253 250 247 245 244 243 240
293 297 303 310 310 313 312 316 322 320 320 319 318 318 318 317 317 316 316 316 316 316 314 312 310 306 302 300 296 293 290 289 288 286 283 281 278 275 271 266 262 257 253 250 247 245 242 241 241
320 319 320 322 325 327 322 317 329 327 327 325 324 323 321 320 320 319 319 319 319 318 317 315 312 308 305 302 300 298 296 294 292 289 286 283 279 275 271 267 262 258 253 249 247 245 242 241 240
339 335 335 334 332 332 332 328 335 333 332 330 329 327 325 324 323 322 322 322 322 321 319 316 313 311 308 306 304 303 302 300 297 293 290 287 282 278 273 268 263 258 253 249 246 243 241 240 239
Height
5931 5931 5931 5932 5933 5933 5932 5932 5930 5930 5929 5928 5927 5926 5925 5924 5924 5926 5922 5920 5919 5918 5917 5916 5916 5916 5916 5916 5916 5915 5915 5914 5913 5912 5912 5911 5910 5909 5908 5906 5905 5904 5903 5903 5902 5901 5900 5900 5899
5931 5931 5932 5932 5933 5935 5932 5931 5930 5929 5928 5927 5926 5925 5924 5923 5922 5921 5919 5918 5917 5916 5915 5914 5914 5914 5914 5914 5914 5914 5913 5912 5911 5911 5910 5909 5909 5908 5907 5906 5904 5904 5903 5902 5901 5900 5900 5899 5899
5930 5930 5931 5932 5932 5932 5931 5930 5929 5929 5928 5926 5925 5924 5923 5921 5920 5919 5917 5916 5915 5914 5913 5912 5912 5912 5912 5912 5912 5912 5911 5910 5909 5909 5908 5907 5907 5906 5905 5904 5903 5902 5902 5901 5900 5899 5899 5898 5898
5928 5929 5930 5931 5931 5929 5929 5929 5928 5928 5927 5926 5924 5923 5921 5920 5918 5917 5915 5914 5913 5912 5912 5911 5911 5911 5910 5910 5910 5909 5909 5908 5907 5907 5906 5905 5904 5903 5902 5901 5901 5900 5899 5899 5899 5898 5897 5897 5897
5926 5927 5929 5930 5928 5927 5927 5927 5927 5927 5926 5924 5923 5922 5920 5918 5916 5915 5914 5913 5912 5911 5910 5910 5909 5909 5909 5908 5908 5907 5907 5906 5905 5904 5903 5902 5901 5900 5899 5898 5898 5897 5897 5896 5896 5896 5895 5895 5895
5924 5925 5926 5928 5925 5924 5924 5924 5925 5924 5924 5922 5921 5920 5918 5916 5915 5914 5912 5911 5910 5909 5909 5908 5908 5907 5907 5906 5906 5905 5904 5903 5902 5901 5900 5899 5898 5897 5896 5895 5894 5893 5893 5892 5892 5892 5892 5892 5892
5921 5922 5922 5922 5922 5921 5921 5921 5921 5921 5921 5920 5919 5918 5916 5915 5913 5912 5910 5909 5908 5907 5906 5906 5905 5905 5904 5903 5902 5901 5900 5899 5898 5897 5896 5895 5894 5893 5891 5891 5890 5889 5888 5888 5888 5888 5888 5889 5889
5917 5918 5918 5918 5918 5918 5917 5917 5917 5917 5917 5916 5916 5915 5914 5913 5911 5910 5908 5907 5906 5905 5904 5903 5902 5901 5900 5899 5898 5897 5895 5894 5893 5892 5890 5889 5888 5887 5886 5885 5884 5884 5883 5883 5883 5883 5884 5884 5884
5913 5915 5914 5913 5913 5914 5913 5913 5913 5913 5913 5912 5912 5912 5911 5910 5910 5908 5907 5905 5904 5902 5901 5900 5899 5897 5895 5894 5893 5892 5890 5889 5887 5886 5884 5883 5881 5880 5879 5879 5878 5878 5878 5877 5877 5878 5878 5879 5879
5909 5910 5909 5908 5908 5908 5907 5908 5909 5909 5908 5907 5907 5907 5907 5907 5906 5905 5904 5903 5901 5900 5898 5896 5895 5893 5891 5889 5887 5885 5884 5882 5880 5878 5877 5875 5873 5872 5871 5871 5871 5871 5871 5871 5871 5871 5872 5872 5873
5905 5904 5903 5902 5902 5903 5903 5903 5904 5904 5903 5903 5903 5903 5903 5902 5901 5901 5900 5898 5897 5895 5894 5892 5890 5888 5886 5884 5882 5879 5876 5874 5872 5870 5867 5865 5864 5862 5861 5861 5862 5862 5863 5864 5865 5865 5865 5866 5867
5900 5899 5898 5898 5898 5899 5899 5899 5899 5899 5900 5899 5899 5898 5898 5897 5896 5895 5894 5893 5892 5891 5889 5887 5885 5883 5880 5878 5876 5872 5869 5867 5864 5862 5859 5855 5854 5853 5852 5852 5853 5853 5855 5856 5857 5858 5859 5859 5860
5895 5894 5894 5894 5894 5894 5895 5895 5895 5894 5894 5894 5894 5893 5892 5891 5891 5890 5888 5887 5886 5885 5883 5881 5879 5877 5874 5872 5869 5866 5862 5859 5856 5854 5850 5846 5844 5842 5842 5842 5843 5844 5846 5848 5849 5850 5851 5852 5853
5890 5889 5889 5889 5889 5889 5889 5889 5889 5888 5888 5888 5887 5887 5886 5885 5884 5884 5883 5881 5880 5878 5877 5874 5872 5870 5867 5864 5861 5858 5854 5851 5848 5845 5841 5836 5833 5831 5831 5832 5834 5835 5837 5839 5841 5842 5844 5845 5846
5885 5886 5885 5885 5885 5884 5885 5884 5883 5882 5882 5881 5881 5880 5879 5879 5878 5878 5877 5876 5874 5872 5870 5868 5865 5862 5859 5856 5853 5850 5846 5843 5840 5836 5831 5826 5821 5819 5819 5821 5823 5826 5827 5830 5832 5834 5836 5838 5839
5882 5883 5882 5880 5880 5880 5881 5879 5877 5876 5876 5875 5875 5874 5873 5873 5872 5872 5871 5870 5868 5866 5863 5860 5857 5854 5851 5848 5845 5842 5838 5835 5831 5827 5821 5815 5811 5808 5808 5810 5813 5816 5818 5821 5824 5826 5828 5830 5832
5881 5883 5880 5877 5877 5876 5876 5874 5873 5872 5871 5870 5869 5869 5868 5868 5867 5866 5865 5863 5861 5858 5855 5851 5848 5845 5842 5839 5836 5833 5830 5826 5822 5817 5812 5806 5802 5799 5799 5800 5803 5806 5810 5813 5816 5819 5821 5823 5825
5879 5879 5877 5875 5873 5873 5871 5870 5869 5867 5867 5866 5865 5864 5864 5863 5862 5860 5858 5856 5853 5849 5846 5843 5839 5836 5833 5830 5827 5824 5821 5818 5813 5809 5803 5798 5794 5792 5791 5792 5795 5798 5801 5805 5808 5810 5813 5815 5818
5874 5874 5874 5871 5870 5869 5867 5866 5864 5863 5862 5862 5861 5860 5859 5857 5855 5853 5850 5847 5844 5841 5837 5834 5830 5827 5824 5821 5818 5816 5812 5809 5805 5801 5797 5792 5788 5787 5785 5786 5788 5790 5793 5796 5799 5802 5804 5807 5810
5871 5872 5870 5868 5866 5865 5863 5862 5860 5859 5858 5857 5856 5855 5853 5851 5849 5846 5843 5840 5837 5833 5830 5826 5822 5819 5816 5812 5810 5807 5804 5800 5797 5794 5790 5787 5784 5782 5780 5781 5781 5782 5784 5787 5790 5793 5796 5798 5801
5870 5870 5869 5866 5864 5862 5860 5859 5857 5856 5855 5853 5852 5850 5848 5846 5843 5840 5837 5833 5830 5826 5822 5818 5815 5811 5807 5803 5800 5797 5794 5791 5788 5785 5783 5780 5779 5777 5776 5776 5776 5776 5777 5779 5781 5784 5787 5790 5793
5869 5867 5866 5864 5862 5860 5860 5858 5856 5853 5852 5850 5848 5846 5843 5841 5838 5834 5831 5827 5823 5819 5815 5811 5806 5802 5798 5794 5790 5787 5784 5781 5778 5776 5774 5772 5771 5770 5769 5769 5769 5769 5770 5771 5772 5775 5778 5781 5784
5865 5864 5864 5862 5861 5859 5857 5856 5854 5850 5849 5847 5844 5841 5839 5836 5832 5829 5825 5821 5817 5812 5808 5803 5798 5793 5788 5784 5780 5776 5773 5770 5768 5766 5764 5762 5761 5761 5761 5761 5761 5761 5762 5763 5764 5766 5769 5772 5775
5864 5863 5862 5861 5860 5859 5856 5854 5851 5848 5846 5843 5840 5837 5834 5830 5826 5822 5818 5814 5809 5805 5800 5795 5790 5784 5778 5774 5769 5765 5762 5759 5756 5754 5753 5752 5750 5750 5750 5750 5750 5751 5752 5753 5755 5756 5759 5763 5766
5863 5863 5863 5861 5859 5857 5853 5850 5848 5844 5842 5838 5835 5831 5828 5824 5820 5815 5811 5806 5802 5797 5791 5785 5780 5774 5768 5763 5758 5754 5750 5747 5745 5743 5741 5740 5739 5738 5738 5738 5739 5740 5741 5743 5745 5746 5749 5752 5756
5861 5861 5862 5860 5859 5856 5849 5847 5844 5840 5837 5833 5829 5825 5821 5817 5812 5807 5802 5797 5792 5787 5781 5775 5769 5763 5757 5752 5747 5743 5740 5736 5734 5731 5729 5727 5726 5725 5725 5725 5725 5727 5728 5730 5733 5735 5738 5741 5745
5859 5858 5857 5856 5854 5851 5848 5844 5840 5835 5831 5827 5823 5818 5814 5809 5804 5799 5793 5788 5782 5776 5770 5763 5756 5751 5746 5741 5737 5733 5729 5726 5722 5719 5717 5714 5712 5711 5710 5710 5710 5712 5713 5716 5719 5722 5725 5729 5733
5856 5854 5853 5852 5850 5849 5846 5840 5836 5830 5826 5822 5817 5812 5807 5802 5796 5791 5784 5778 5771 5765 5758 5751 5745 5740 5735 5730 5726 5723 5719 5714 5710 5706 5703 5700 5697 5695 5693 5692 5693 5694 5696 5699 5702 5705 5709 5714 5719
5854 5852 5850 5849 5847 5844 5842 5839 5832 5826 5821 5817 5812 5807 5801 5796 5789 5783 5776 5769 5762 5755 5747 5741 5735 5730 5725 5720 5715 5710 5706 5700 5695 5690 5686 5682 5678 5676 5674 5672 5672 5673 5675 5678 5682 5686 5691 5697 5702
5851 5850 5848 5847 5843 5840 5837 5836 5828 5822 5817 5812 5807 5801 5795 5789 5782 5775 5768 5761 5753 5745 5738 5731 5725 5720 5714 5709 5703 5697 5691 5685 5678 5672 5666 5661 5656 5653 5650 5649 5649 5650 5652 5656 5660 5665 5670 5677 5684